Year,Month,Day,Hour,Minute,Value (Times are PST for temperature in C)
2013,09,30,00,00,8.20
2013,09,30,00,01,8.20
2013,09,30,00,02,8.20
2013,09,30,00,03,8.20
2013,09,30,00,04,8.20
2013,09,30,00,05,8.20
2013,09,30,00,06,8.20
2013,09,30,00,07,8.20
2013,09,30,00,08,8.20
2013,09,30,00,09,8.20
2013,09,30,00,10,8.20
2013,09,30,00,11,8.20
2013,09,30,00,12,8.30
2013,09,30,00,13,8.30
2013,09,30,00,14,8.30
2013,09,30,00,15,8.30
2013,09,30,00,16,8.30
2013,09,30,00,17,8.30
2013,09,30,00,18,8.30
2013,09,30,00,19,8.30
2013,09,30,00,20,8.30
2013,09,30,00,21,8.30
2013,09,30,00,22,8.30
2013,09,30,00,23,8.30
2013,09,30,00,24,8.30
2013,09,30,00,25,8.30
2013,09,30,00,26,8.30
2013,09,30,00,27,8.30
2013,09,30,00,28,8.30
2013,09,30,00,29,8.30
2013,09,30,00,30,8.30
2013,09,30,00,31,8.30
2013,09,30,00,32,8.30
2013,09,30,00,33,8.30
2013,09,30,00,34,8.30
2013,09,30,00,35,8.30
2013,09,30,00,36,8.30
2013,09,30,00,37,8.30
2013,09,30,00,38,8.30
2013,09,30,00,39,8.30
2013,09,30,00,40,8.30
2013,09,30,00,41,8.30
2013,09,30,00,42,8.20
2013,09,30,00,43,8.20
2013,09,30,00,44,8.20
2013,09,30,00,45,8.20
2013,09,30,00,46,8.20
2013,09,30,00,47,8.20
2013,09,30,00,48,8.20
2013,09,30,00,49,8.20
2013,09,30,00,50,8.20
2013,09,30,00,51,8.10
2013,09,30,00,52,8.10
2013,09,30,00,53,8.10
2013,09,30,00,54,8.10
2013,09,30,00,55,8.10
2013,09,30,00,56,8.10
2013,09,30,00,57,8.10
2013,09,30,00,58,8.10
2013,09,30,00,59,8.10
2013,09,30,01,00,8.10
2013,09,30,01,01,8.10
2013,09,30,01,02,8.10
2013,09,30,01,03,8.10
2013,09,30,01,04,8.10
2013,09,30,01,05,8.10
2013,09,30,01,06,8.10
2013,09,30,01,07,8.00
2013,09,30,01,08,8.00
2013,09,30,01,09,8.00
2013,09,30,01,10,8.00
2013,09,30,01,11,8.00
2013,09,30,01,12,8.00
2013,09,30,01,13,8.00
2013,09,30,01,14,8.00
2013,09,30,01,15,8.00
2013,09,30,01,16,8.00
2013,09,30,01,17,8.00
2013,09,30,01,18,8.00
2013,09,30,01,19,8.00
2013,09,30,01,20,8.00
2013,09,30,01,21,8.00
2013,09,30,01,22,8.00
2013,09,30,01,23,8.00
2013,09,30,01,24,8.00
2013,09,30,01,25,8.00
2013,09,30,01,26,8.00
2013,09,30,01,27,8.00
2013,09,30,01,28,7.90
2013,09,30,01,29,7.90
2013,09,30,01,30,7.90
2013,09,30,01,31,7.90
2013,09,30,01,32,7.90
2013,09,30,01,33,7.90
2013,09,30,01,34,7.90
2013,09,30,01,35,7.90
2013,09,30,01,36,7.90
2013,09,30,01,37,7.90
2013,09,30,01,38,7.90
2013,09,30,01,39,7.90
2013,09,30,01,40,7.90
2013,09,30,01,41,7.90
2013,09,30,01,42,7.90
2013,09,30,01,43,7.90
2013,09,30,01,44,7.90
2013,09,30,01,45,7.90
2013,09,30,01,46,7.90
2013,09,30,01,47,7.90
2013,09,30,01,48,7.90
2013,09,30,01,49,7.90
2013,09,30,01,50,7.90
2013,09,30,01,51,7.90
2013,09,30,01,52,7.80
2013,09,30,01,53,7.80
2013,09,30,01,54,7.80
2013,09,30,01,55,7.80
2013,09,30,01,56,7.80
2013,09,30,01,57,7.80
2013,09,30,01,58,7.80
2013,09,30,01,59,7.80
2013,09,30,02,00,7.80
2013,09,30,02,01,7.80
2013,09,30,02,02,7.80
2013,09,30,02,03,7.80
2013,09,30,02,04,7.80
2013,09,30,02,05,7.80
2013,09,30,02,06,7.80
2013,09,30,02,07,7.80
2013,09,30,02,08,7.80
2013,09,30,02,09,7.80
2013,09,30,02,10,7.80
2013,09,30,02,11,7.80
2013,09,30,02,12,7.80
2013,09,30,02,13,7.80
2013,09,30,02,14,7.80
2013,09,30,02,15,7.80
2013,09,30,02,16,7.80
2013,09,30,02,17,7.80
2013,09,30,02,18,7.80
2013,09,30,02,19,7.80
2013,09,30,02,20,7.80
2013,09,30,02,21,7.80
2013,09,30,02,22,7.80
2013,09,30,02,23,7.80
2013,09,30,02,24,7.80
2013,09,30,02,25,7.80
2013,09,30,02,26,7.80
2013,09,30,02,27,7.80
2013,09,30,02,28,7.80
2013,09,30,02,29,7.80
2013,09,30,02,30,7.80
2013,09,30,02,31,7.80
2013,09,30,02,32,7.80
2013,09,30,02,33,7.80
2013,09,30,02,34,7.80
2013,09,30,02,35,7.80
2013,09,30,02,36,7.80
2013,09,30,02,37,7.80
2013,09,30,02,38,7.80
2013,09,30,02,39,7.80
2013,09,30,02,40,7.80
2013,09,30,02,41,7.80
2013,09,30,02,42,7.80
2013,09,30,02,43,7.80
2013,09,30,02,44,7.80
2013,09,30,02,45,7.80
2013,09,30,02,46,7.80
2013,09,30,02,47,7.80
2013,09,30,02,48,7.80
2013,09,30,02,49,7.80
2013,09,30,02,50,7.80
2013,09,30,02,51,7.80
2013,09,30,02,52,7.80
2013,09,30,02,53,7.80
2013,09,30,02,54,7.80
2013,09,30,02,55,7.80
2013,09,30,02,56,7.90
2013,09,30,02,57,7.90
2013,09,30,02,58,7.90
2013,09,30,02,59,7.90
2013,09,30,03,00,7.90
2013,09,30,03,01,7.90
2013,09,30,03,02,7.90
2013,09,30,03,03,7.90
2013,09,30,03,04,7.90
2013,09,30,03,05,7.90
2013,09,30,03,06,7.90
2013,09,30,03,07,7.90
2013,09,30,03,08,7.90
2013,09,30,03,09,7.90
2013,09,30,03,10,7.90
2013,09,30,03,11,7.90
2013,09,30,03,12,7.90
2013,09,30,03,13,7.90
2013,09,30,03,14,7.90
2013,09,30,03,15,7.90
2013,09,30,03,16,7.90
2013,09,30,03,17,7.90
2013,09,30,03,18,7.90
2013,09,30,03,19,7.90
2013,09,30,03,20,7.90
2013,09,30,03,21,7.90
2013,09,30,03,22,7.90
2013,09,30,03,23,7.90
2013,09,30,03,24,7.90
2013,09,30,03,25,7.90
2013,09,30,03,26,7.90
2013,09,30,03,27,7.90
2013,09,30,03,28,7.90
2013,09,30,03,29,7.90
2013,09,30,03,30,7.90
2013,09,30,03,31,7.90
2013,09,30,03,32,7.90
2013,09,30,03,33,7.90
2013,09,30,03,34,7.90
2013,09,30,03,35,7.90
2013,09,30,03,36,7.90
2013,09,30,03,37,7.90
2013,09,30,03,38,7.90
2013,09,30,03,39,7.90
2013,09,30,03,40,7.90
2013,09,30,03,41,7.90
2013,09,30,03,42,8.00
2013,09,30,03,43,8.00
2013,09,30,03,44,8.00
2013,09,30,03,45,8.00
2013,09,30,03,46,8.00
2013,09,30,03,47,8.00
2013,09,30,03,48,8.00
2013,09,30,03,49,8.00
2013,09,30,03,50,8.00
2013,09,30,03,51,8.10
2013,09,30,03,52,8.10
2013,09,30,03,53,8.10
2013,09,30,03,54,8.10
2013,09,30,03,55,8.10
2013,09,30,03,56,8.10
2013,09,30,03,57,8.00
2013,09,30,03,58,8.10
2013,09,30,03,59,8.10
2013,09,30,04,00,8.10
2013,09,30,04,01,8.10
2013,09,30,04,02,8.10
2013,09,30,04,03,8.10
2013,09,30,04,04,8.10
2013,09,30,04,05,8.10
2013,09,30,04,06,8.10
2013,09,30,04,07,8.10
2013,09,30,04,08,8.10
2013,09,30,04,09,8.10
2013,09,30,04,10,8.10
2013,09,30,04,11,8.10
2013,09,30,04,12,8.10
2013,09,30,04,13,8.10
2013,09,30,04,14,8.10
2013,09,30,04,15,8.10
2013,09,30,04,16,8.10
2013,09,30,04,17,8.10
2013,09,30,04,18,8.10
2013,09,30,04,19,8.10
2013,09,30,04,20,8.10
2013,09,30,04,21,8.10
2013,09,30,04,22,8.10
2013,09,30,04,23,8.10
2013,09,30,04,24,8.10
2013,09,30,04,25,8.10
2013,09,30,04,26,8.00
2013,09,30,04,27,8.00
2013,09,30,04,28,8.00
2013,09,30,04,29,8.00
2013,09,30,04,30,8.00
2013,09,30,04,31,8.00
2013,09,30,04,32,8.00
2013,09,30,04,33,8.00
2013,09,30,04,34,8.00
2013,09,30,04,35,8.00
2013,09,30,04,36,8.00
2013,09,30,04,37,8.00
2013,09,30,04,38,8.00
2013,09,30,04,39,8.00
2013,09,30,04,40,8.00
2013,09,30,04,41,8.00
2013,09,30,04,42,8.00
2013,09,30,04,43,8.00
2013,09,30,04,44,8.00
2013,09,30,04,45,8.00
2013,09,30,04,46,8.00
2013,09,30,04,47,8.00
2013,09,30,04,48,8.00
2013,09,30,04,49,8.00
2013,09,30,04,50,8.10
2013,09,30,04,51,8.10
2013,09,30,04,52,8.00
2013,09,30,04,53,8.00
2013,09,30,04,54,8.00
2013,09,30,04,55,8.00
2013,09,30,04,56,8.00
2013,09,30,04,57,8.10
2013,09,30,04,58,8.10
2013,09,30,04,59,8.10
2013,09,30,05,00,8.10
2013,09,30,05,01,8.10
2013,09,30,05,02,8.10
2013,09,30,05,03,8.10
2013,09,30,05,04,8.00
2013,09,30,05,05,8.00
2013,09,30,05,06,8.00
2013,09,30,05,07,8.00
2013,09,30,05,08,8.00
2013,09,30,05,09,8.00
2013,09,30,05,10,8.00
2013,09,30,05,11,8.00
2013,09,30,05,12,8.00
2013,09,30,05,13,8.00
2013,09,30,05,14,8.00
2013,09,30,05,15,7.90
2013,09,30,05,16,8.00
2013,09,30,05,17,8.00
2013,09,30,05,18,7.90
2013,09,30,05,19,7.90
2013,09,30,05,20,7.90
2013,09,30,05,21,7.90
2013,09,30,05,22,7.90
2013,09,30,05,23,7.90
2013,09,30,05,24,7.90
2013,09,30,05,25,7.90
2013,09,30,05,26,7.90
2013,09,30,05,27,7.90
2013,09,30,05,28,7.90
2013,09,30,05,29,7.90
2013,09,30,05,30,7.90
2013,09,30,05,31,7.90
2013,09,30,05,32,7.90
2013,09,30,05,33,7.90
2013,09,30,05,34,7.90
2013,09,30,05,35,7.90
2013,09,30,05,36,7.90
2013,09,30,05,37,7.90
2013,09,30,05,38,8.00
2013,09,30,05,39,8.00
2013,09,30,05,40,7.90
2013,09,30,05,41,7.90
2013,09,30,05,42,7.90
2013,09,30,05,43,7.90
2013,09,30,05,44,7.90
2013,09,30,05,45,7.90
2013,09,30,05,46,7.90
2013,09,30,05,47,7.90
2013,09,30,05,48,7.90
2013,09,30,05,49,7.90
2013,09,30,05,50,7.90
2013,09,30,05,51,7.90
2013,09,30,05,52,7.90
2013,09,30,05,53,7.90
2013,09,30,05,54,7.90
2013,09,30,05,55,8.00
2013,09,30,05,56,7.90
2013,09,30,05,57,8.00
2013,09,30,05,58,8.00
2013,09,30,05,59,8.00
2013,09,30,06,00,8.00
2013,09,30,06,01,8.00
2013,09,30,06,02,8.00
2013,09,30,06,03,8.00
2013,09,30,06,04,8.00
2013,09,30,06,05,8.00
2013,09,30,06,06,8.00
2013,09,30,06,07,8.00
2013,09,30,06,08,8.00
2013,09,30,06,09,8.00
2013,09,30,06,10,8.10
2013,09,30,06,11,8.10
2013,09,30,06,12,8.10
2013,09,30,06,13,8.10
2013,09,30,06,14,8.10
2013,09,30,06,15,8.10
2013,09,30,06,16,8.10
2013,09,30,06,17,8.10
2013,09,30,06,18,8.10
2013,09,30,06,19,8.10
2013,09,30,06,20,8.10
2013,09,30,06,21,8.10
2013,09,30,06,22,8.10
2013,09,30,06,23,8.10
2013,09,30,06,24,8.10
2013,09,30,06,25,8.10
2013,09,30,06,26,8.10
2013,09,30,06,27,8.10
2013,09,30,06,28,8.10
2013,09,30,06,29,8.10
2013,09,30,06,30,8.10
2013,09,30,06,31,8.10
2013,09,30,06,32,8.00
2013,09,30,06,33,8.00
2013,09,30,06,34,8.00
2013,09,30,06,35,8.00
2013,09,30,06,36,8.00
2013,09,30,06,37,7.90
2013,09,30,06,38,7.90
2013,09,30,06,39,7.90
2013,09,30,06,40,7.90
2013,09,30,06,41,7.90
2013,09,30,06,42,7.90
2013,09,30,06,43,7.90
2013,09,30,06,44,7.90
2013,09,30,06,45,7.90
2013,09,30,06,46,7.90
2013,09,30,06,47,7.90
2013,09,30,06,48,7.90
2013,09,30,06,49,7.90
2013,09,30,06,50,7.90
2013,09,30,06,51,7.90
2013,09,30,06,52,7.80
2013,09,30,06,53,7.80
2013,09,30,06,54,7.80
2013,09,30,06,55,7.80
2013,09,30,06,56,7.80
2013,09,30,06,57,7.80
2013,09,30,06,58,7.80
2013,09,30,06,59,7.80
2013,09,30,07,00,7.80
2013,09,30,07,01,7.80
2013,09,30,07,02,7.80
2013,09,30,07,03,7.80
2013,09,30,07,04,7.80
2013,09,30,07,05,7.80
2013,09,30,07,06,7.80
2013,09,30,07,07,7.80
2013,09,30,07,08,7.80
2013,09,30,07,09,7.80
2013,09,30,07,10,7.80
2013,09,30,07,11,7.80
2013,09,30,07,12,7.80
2013,09,30,07,13,7.80
2013,09,30,07,14,7.80
2013,09,30,07,15,7.80
2013,09,30,07,16,7.80
2013,09,30,07,17,7.80
2013,09,30,07,18,7.80
2013,09,30,07,19,7.80
2013,09,30,07,20,7.80
2013,09,30,07,21,7.80
2013,09,30,07,22,7.70
2013,09,30,07,23,7.70
2013,09,30,07,24,7.70
2013,09,30,07,25,7.70
2013,09,30,07,26,7.70
2013,09,30,07,27,7.70
2013,09,30,07,28,7.70
2013,09,30,07,29,7.70
2013,09,30,07,30,7.70
2013,09,30,07,31,7.70
2013,09,30,07,32,7.70
2013,09,30,07,33,7.70
2013,09,30,07,34,7.70
2013,09,30,07,35,7.70
2013,09,30,07,36,7.70
2013,09,30,07,37,7.70
2013,09,30,07,38,7.70
2013,09,30,07,39,7.80
2013,09,30,07,40,7.80
2013,09,30,07,41,7.80
2013,09,30,07,42,7.80
2013,09,30,07,43,7.80
2013,09,30,07,44,7.80
2013,09,30,07,45,7.80
2013,09,30,07,46,7.80
2013,09,30,07,47,7.80
2013,09,30,07,48,7.80
2013,09,30,07,49,7.80
2013,09,30,07,50,7.80
2013,09,30,07,51,7.80
2013,09,30,07,52,7.80
2013,09,30,07,53,7.80
2013,09,30,07,54,7.80
2013,09,30,07,55,7.80
2013,09,30,07,56,7.80
2013,09,30,07,57,7.80
2013,09,30,07,58,7.80
2013,09,30,07,59,7.80
2013,09,30,08,00,7.80
2013,09,30,08,01,7.80
2013,09,30,08,02,7.70
2013,09,30,08,03,7.70
2013,09,30,08,04,7.70
2013,09,30,08,05,7.80
2013,09,30,08,06,7.80
2013,09,30,08,07,7.80
2013,09,30,08,08,7.80
2013,09,30,08,09,7.80
2013,09,30,08,10,7.80
2013,09,30,08,11,7.80
2013,09,30,08,12,7.80
2013,09,30,08,13,7.80
2013,09,30,08,14,7.80
2013,09,30,08,15,7.80
2013,09,30,08,16,7.90
2013,09,30,08,17,7.90
2013,09,30,08,18,7.90
2013,09,30,08,19,7.90
2013,09,30,08,20,7.90
2013,09,30,08,21,8.00
2013,09,30,08,22,8.00
2013,09,30,08,23,8.00
2013,09,30,08,24,8.00
2013,09,30,08,25,8.10
2013,09,30,08,26,8.10
2013,09,30,08,27,8.10
2013,09,30,08,28,8.10
2013,09,30,08,29,8.10
2013,09,30,08,30,8.10
2013,09,30,08,31,8.20
2013,09,30,08,32,8.20
2013,09,30,08,33,8.20
2013,09,30,08,34,8.20
2013,09,30,08,35,8.20
2013,09,30,08,36,8.20
2013,09,30,08,37,8.20
2013,09,30,08,38,8.20
2013,09,30,08,39,8.20
2013,09,30,08,40,8.20
2013,09,30,08,41,8.20
2013,09,30,08,42,8.20
2013,09,30,08,43,8.30
2013,09,30,08,44,8.30
2013,09,30,08,45,8.30
2013,09,30,08,46,8.30
2013,09,30,08,47,8.30
2013,09,30,08,48,8.30
2013,09,30,08,49,8.30
2013,09,30,08,50,8.40
2013,09,30,08,51,8.40
2013,09,30,08,52,8.40
2013,09,30,08,53,8.50
2013,09,30,08,54,8.50
2013,09,30,08,55,8.50
2013,09,30,08,56,8.60
2013,09,30,08,57,8.60
2013,09,30,08,58,8.60
2013,09,30,08,59,8.60
2013,09,30,09,00,8.70
2013,09,30,09,01,8.70
2013,09,30,09,02,8.70
2013,09,30,09,03,8.70
2013,09,30,09,04,8.80
2013,09,30,09,05,8.80
2013,09,30,09,06,8.80
2013,09,30,09,07,8.80
2013,09,30,09,08,8.90
2013,09,30,09,09,8.90
2013,09,30,09,10,9.00
2013,09,30,09,11,9.00
2013,09,30,09,12,9.10
2013,09,30,09,13,9.10
2013,09,30,09,14,9.20
2013,09,30,09,15,9.20
2013,09,30,09,16,9.30
2013,09,30,09,17,9.30
2013,09,30,09,18,9.40
2013,09,30,09,19,9.40
2013,09,30,09,20,9.50
2013,09,30,09,21,9.60
2013,09,30,09,22,9.60
2013,09,30,09,23,9.70
2013,09,30,09,24,9.70
2013,09,30,09,25,9.80
2013,09,30,09,26,9.80
2013,09,30,09,27,9.80
2013,09,30,09,28,9.90
2013,09,30,09,29,9.90
2013,09,30,09,30,9.90
2013,09,30,09,31,10.00
2013,09,30,09,32,10.00
2013,09,30,09,33,10.00
2013,09,30,09,34,10.00
2013,09,30,09,35,10.10
2013,09,30,09,36,10.10
2013,09,30,09,37,10.10
2013,09,30,09,38,10.20
2013,09,30,09,39,10.20
2013,09,30,09,40,10.20
2013,09,30,09,41,10.30
2013,09,30,09,42,10.30
2013,09,30,09,43,10.30
2013,09,30,09,44,10.40
2013,09,30,09,45,10.40
2013,09,30,09,46,10.40
2013,09,30,09,47,10.40
2013,09,30,09,48,10.40
2013,09,30,09,49,10.40
2013,09,30,09,50,10.40
2013,09,30,09,51,10.40
2013,09,30,09,52,10.40
2013,09,30,09,53,10.40
2013,09,30,09,54,10.40
2013,09,30,09,55,10.40
2013,09,30,09,56,10.40
2013,09,30,09,57,10.40
2013,09,30,09,58,10.40
2013,09,30,09,59,10.40
2013,09,30,10,00,10.40
2013,09,30,10,01,10.40
2013,09,30,10,02,10.40
2013,09,30,10,03,10.40
2013,09,30,10,04,10.40
2013,09,30,10,05,10.30
2013,09,30,10,06,10.30
2013,09,30,10,07,10.30
2013,09,30,10,08,10.30
2013,09,30,10,09,10.30
2013,09,30,10,10,10.30
2013,09,30,10,11,10.40
2013,09,30,10,12,10.40
2013,09,30,10,13,10.40
2013,09,30,10,14,10.40
2013,09,30,10,15,10.50
2013,09,30,10,16,10.50
2013,09,30,10,17,10.60
2013,09,30,10,18,10.60
2013,09,30,10,19,10.70
2013,09,30,10,20,10.70
2013,09,30,10,21,10.80
2013,09,30,10,22,10.80
2013,09,30,10,23,10.80
2013,09,30,10,24,10.80
2013,09,30,10,25,10.90
2013,09,30,10,26,10.90
2013,09,30,10,27,10.90
2013,09,30,10,28,10.90
2013,09,30,10,29,10.90
2013,09,30,10,30,10.90
2013,09,30,10,31,10.90
2013,09,30,10,32,11.00
2013,09,30,10,33,11.00
2013,09,30,10,34,11.00
2013,09,30,10,35,11.10
2013,09,30,10,36,11.10
2013,09,30,10,37,11.10
2013,09,30,10,38,11.10
2013,09,30,10,39,11.20
2013,09,30,10,40,11.20
2013,09,30,10,41,11.20
2013,09,30,10,42,11.10
2013,09,30,10,43,11.10
2013,09,30,10,44,11.10
2013,09,30,10,45,11.10
2013,09,30,10,46,11.10
2013,09,30,10,47,11.10
2013,09,30,10,48,11.00
2013,09,30,10,49,11.00
2013,09,30,10,50,11.00
2013,09,30,10,51,11.00
2013,09,30,10,52,11.00
2013,09,30,10,53,11.00
2013,09,30,10,54,11.00
2013,09,30,10,55,11.00
2013,09,30,10,56,11.00
2013,09,30,10,57,11.00
2013,09,30,10,58,11.00
2013,09,30,10,59,10.90
2013,09,30,11,00,10.90
2013,09,30,11,01,10.90
2013,09,30,11,02,10.90
2013,09,30,11,03,10.90
2013,09,30,11,04,10.90
2013,09,30,11,05,10.90
2013,09,30,11,06,10.90
2013,09,30,11,07,10.90
2013,09,30,11,08,10.90
2013,09,30,11,09,10.90
2013,09,30,11,10,10.90
2013,09,30,11,11,10.80
2013,09,30,11,12,10.90
2013,09,30,11,13,10.90
2013,09,30,11,14,10.90
2013,09,30,11,15,10.90
2013,09,30,11,16,10.90
2013,09,30,11,17,10.90
2013,09,30,11,18,10.90
2013,09,30,11,19,11.00
2013,09,30,11,20,11.00
2013,09,30,11,21,11.10
2013,09,30,11,22,11.20
2013,09,30,11,23,11.20
2013,09,30,11,24,11.30
2013,09,30,11,25,11.30
2013,09,30,11,26,11.40
2013,09,30,11,27,11.40
2013,09,30,11,28,11.40
2013,09,30,11,29,11.50
2013,09,30,11,30,11.60
2013,09,30,11,31,11.80
2013,09,30,11,32,11.90
2013,09,30,11,33,12.00
2013,09,30,11,34,12.10
2013,09,30,11,35,12.30
2013,09,30,11,36,12.40
2013,09,30,11,37,12.40
2013,09,30,11,38,12.50
2013,09,30,11,39,12.50
2013,09,30,11,40,12.60
2013,09,30,11,41,12.70
2013,09,30,11,42,12.80
2013,09,30,11,43,13.00
2013,09,30,11,44,13.00
2013,09,30,11,45,13.10
2013,09,30,11,46,13.10
2013,09,30,11,47,13.10
2013,09,30,11,48,13.10
2013,09,30,11,49,13.10
2013,09,30,11,50,13.10
2013,09,30,11,51,13.00
2013,09,30,11,52,12.90
2013,09,30,11,53,12.80
2013,09,30,11,54,12.80
2013,09,30,11,55,12.80
2013,09,30,11,56,12.70
2013,09,30,11,57,12.70
2013,09,30,11,58,12.70
2013,09,30,11,59,12.70
2013,09,30,12,00,12.70
2013,09,30,12,01,12.70
2013,09,30,12,02,12.70
2013,09,30,12,03,12.70
2013,09,30,12,04,12.80
2013,09,30,12,05,12.80
2013,09,30,12,06,12.90
2013,09,30,12,07,13.00
2013,09,30,12,08,13.00
2013,09,30,12,09,13.10
2013,09,30,12,10,13.20
2013,09,30,12,11,13.20
2013,09,30,12,12,13.20
2013,09,30,12,13,13.20
2013,09,30,12,14,13.20
2013,09,30,12,15,13.20
2013,09,30,12,16,13.10
2013,09,30,12,17,13.10
2013,09,30,12,18,13.10
2013,09,30,12,19,13.10
2013,09,30,12,20,13.10
2013,09,30,12,21,13.20
2013,09,30,12,22,13.20
2013,09,30,12,23,13.20
2013,09,30,12,24,13.20
2013,09,30,12,25,13.30
2013,09,30,12,26,13.30
2013,09,30,12,27,13.40
2013,09,30,12,28,13.50
2013,09,30,12,29,13.60
2013,09,30,12,30,13.70
2013,09,30,12,31,13.70
2013,09,30,12,32,13.80
2013,09,30,12,33,13.90
2013,09,30,12,34,14.00
2013,09,30,12,35,14.00
2013,09,30,12,36,14.10
2013,09,30,12,37,14.20
2013,09,30,12,38,14.30
2013,09,30,12,39,14.40
2013,09,30,12,40,14.40
2013,09,30,12,41,14.50
2013,09,30,12,42,14.50
2013,09,30,12,43,14.50
2013,09,30,12,44,14.50
2013,09,30,12,45,14.40
2013,09,30,12,46,14.40
2013,09,30,12,47,14.40
2013,09,30,12,48,14.40
2013,09,30,12,49,14.40
2013,09,30,12,50,14.40
2013,09,30,12,51,14.40
2013,09,30,12,52,14.40
2013,09,30,12,53,14.40
2013,09,30,12,54,14.40
2013,09,30,12,55,14.40
2013,09,30,12,56,14.40
2013,09,30,12,57,14.40
2013,09,30,12,58,14.50
2013,09,30,12,59,14.40
2013,09,30,13,00,14.40
2013,09,30,13,01,14.40
2013,09,30,13,02,14.40
2013,09,30,13,03,14.30
2013,09,30,13,04,14.30
2013,09,30,13,05,14.30
2013,09,30,13,06,14.20
2013,09,30,13,07,14.20
2013,09,30,13,08,14.20
2013,09,30,13,09,14.10
2013,09,30,13,10,14.10
2013,09,30,13,11,14.10
2013,09,30,13,12,14.10
2013,09,30,13,13,14.10
2013,09,30,13,14,14.00
2013,09,30,13,15,13.90
2013,09,30,13,16,13.90
2013,09,30,13,17,13.90
2013,09,30,13,18,13.80
2013,09,30,13,19,13.80
2013,09,30,13,20,13.80
2013,09,30,13,21,13.70
2013,09,30,13,22,13.70
2013,09,30,13,23,13.70
2013,09,30,13,24,13.70
2013,09,30,13,25,13.70
2013,09,30,13,26,13.70
2013,09,30,13,27,13.70
2013,09,30,13,28,13.70
2013,09,30,13,29,13.70
2013,09,30,13,30,13.70
2013,09,30,13,31,13.70
2013,09,30,13,32,13.70
2013,09,30,13,33,13.70
2013,09,30,13,34,13.70
2013,09,30,13,35,13.70
2013,09,30,13,36,13.70
2013,09,30,13,37,13.70
2013,09,30,13,38,13.70
2013,09,30,13,39,13.70
2013,09,30,13,40,13.70
2013,09,30,13,41,13.70
2013,09,30,13,42,13.60
2013,09,30,13,43,13.60
2013,09,30,13,44,13.60
2013,09,30,13,45,13.60
2013,09,30,13,46,13.60
2013,09,30,13,47,13.60
2013,09,30,13,48,13.60
2013,09,30,13,49,13.60
2013,09,30,13,50,13.50
2013,09,30,13,51,13.50
2013,09,30,13,52,13.50
2013,09,30,13,53,13.50
2013,09,30,13,54,13.50
2013,09,30,13,55,13.40
2013,09,30,13,56,13.40
2013,09,30,13,57,13.40
2013,09,30,13,58,13.40
2013,09,30,13,59,13.40
2013,09,30,14,00,13.40
2013,09,30,14,01,13.30
2013,09,30,14,02,13.30
2013,09,30,14,03,13.30
2013,09,30,14,04,13.30
2013,09,30,14,05,13.30
2013,09,30,14,06,13.30
2013,09,30,14,07,13.30
2013,09,30,14,08,13.30
2013,09,30,14,09,13.30
2013,09,30,14,10,13.30
2013,09,30,14,11,13.30
2013,09,30,14,12,13.20
2013,09,30,14,13,13.20
2013,09,30,14,14,13.20
2013,09,30,14,15,13.20
2013,09,30,14,16,13.20
2013,09,30,14,17,13.20
2013,09,30,14,18,13.10
2013,09,30,14,19,13.10
2013,09,30,14,20,13.20
2013,09,30,14,21,13.20
2013,09,30,14,22,13.20
2013,09,30,14,23,13.30
2013,09,30,14,24,13.40
2013,09,30,14,25,13.50
2013,09,30,14,26,13.60
2013,09,30,14,27,13.70
2013,09,30,14,28,13.90
2013,09,30,14,29,14.00
2013,09,30,14,30,14.10
2013,09,30,14,31,14.20
2013,09,30,14,32,14.30
2013,09,30,14,33,14.40
2013,09,30,14,34,14.50
2013,09,30,14,35,14.60
2013,09,30,14,36,14.70
2013,09,30,14,37,14.70
2013,09,30,14,38,14.70
2013,09,30,14,39,14.80
2013,09,30,14,40,14.80
2013,09,30,14,41,14.70
2013,09,30,14,42,14.70
2013,09,30,14,43,14.80
2013,09,30,14,44,14.80
2013,09,30,14,45,14.80
2013,09,30,14,46,14.80
2013,09,30,14,47,14.90
2013,09,30,14,48,15.00
2013,09,30,14,49,15.10
2013,09,30,14,50,15.10
2013,09,30,14,51,15.20
2013,09,30,14,52,15.20
2013,09,30,14,53,15.30
2013,09,30,14,54,15.30
2013,09,30,14,55,15.30
2013,09,30,14,56,15.30
2013,09,30,14,57,15.30
2013,09,30,14,58,15.30
2013,09,30,14,59,15.30
2013,09,30,15,00,15.30
2013,09,30,15,01,15.30
2013,09,30,15,02,15.30
2013,09,30,15,03,15.30
2013,09,30,15,04,15.20
2013,09,30,15,05,15.20
2013,09,30,15,06,15.20
2013,09,30,15,07,15.20
2013,09,30,15,08,15.20
2013,09,30,15,09,15.20
2013,09,30,15,10,15.10
2013,09,30,15,11,15.10
2013,09,30,15,12,15.00
2013,09,30,15,13,15.00
2013,09,30,15,14,14.90
2013,09,30,15,15,14.80
2013,09,30,15,16,14.80
2013,09,30,15,17,14.80
2013,09,30,15,18,14.80
2013,09,30,15,19,14.80
2013,09,30,15,20,14.80
2013,09,30,15,21,14.70
2013,09,30,15,22,14.80
2013,09,30,15,23,14.80
2013,09,30,15,24,14.70
2013,09,30,15,25,14.70
2013,09,30,15,26,14.70
2013,09,30,15,27,14.70
2013,09,30,15,28,14.70
2013,09,30,15,29,14.60
2013,09,30,15,30,14.60
2013,09,30,15,31,14.50
2013,09,30,15,32,14.50
2013,09,30,15,33,14.40
2013,09,30,15,34,14.40
2013,09,30,15,35,14.30
2013,09,30,15,36,14.30
2013,09,30,15,37,14.20
2013,09,30,15,38,14.20
2013,09,30,15,39,14.20
2013,09,30,15,40,14.10
2013,09,30,15,41,14.10
2013,09,30,15,42,14.00
2013,09,30,15,43,14.00
2013,09,30,15,44,14.00
2013,09,30,15,45,13.90
2013,09,30,15,46,13.90
2013,09,30,15,47,13.80
2013,09,30,15,48,13.80
2013,09,30,15,49,13.80
2013,09,30,15,50,13.80
2013,09,30,15,51,13.70
2013,09,30,15,52,13.60
2013,09,30,15,53,13.50
2013,09,30,15,54,13.40
2013,09,30,15,55,13.30
2013,09,30,15,56,13.30
2013,09,30,15,57,13.20
2013,09,30,15,58,13.20
2013,09,30,15,59,13.10
2013,09,30,16,00,13.10
2013,09,30,16,01,13.10
2013,09,30,16,02,13.00
2013,09,30,16,03,13.00
2013,09,30,16,04,12.90
2013,09,30,16,05,12.90
2013,09,30,16,06,12.80
2013,09,30,16,07,12.70
2013,09,30,16,08,12.70
2013,09,30,16,09,12.70
2013,09,30,16,10,12.70
2013,09,30,16,11,12.70
2013,09,30,16,12,12.70
2013,09,30,16,13,12.60
2013,09,30,16,14,12.60
2013,09,30,16,15,12.60
2013,09,30,16,16,12.60
2013,09,30,16,17,12.60
2013,09,30,16,18,12.60
2013,09,30,16,19,12.50
2013,09,30,16,20,12.50
2013,09,30,16,21,12.60
2013,09,30,16,22,12.60
2013,09,30,16,23,12.60
2013,09,30,16,24,12.60
2013,09,30,16,25,12.60
2013,09,30,16,26,12.60
2013,09,30,16,27,12.60
2013,09,30,16,28,12.70
2013,09,30,16,29,12.70
2013,09,30,16,30,12.70
2013,09,30,16,31,12.70
2013,09,30,16,32,12.70
2013,09,30,16,33,12.80
2013,09,30,16,34,12.80
2013,09,30,16,35,12.80
2013,09,30,16,36,12.90
2013,09,30,16,37,12.90
2013,09,30,16,38,13.00
2013,09,30,16,39,13.00
2013,09,30,16,40,13.00
2013,09,30,16,41,13.00
2013,09,30,16,42,13.10
2013,09,30,16,43,13.10
2013,09,30,16,44,13.10
2013,09,30,16,45,13.20
2013,09,30,16,46,13.20
2013,09,30,16,47,13.20
2013,09,30,16,48,13.20
2013,09,30,16,49,13.30
2013,09,30,16,50,13.30
2013,09,30,16,51,13.30
2013,09,30,16,52,13.30
2013,09,30,16,53,13.30
2013,09,30,16,54,13.30
2013,09,30,16,55,13.30
2013,09,30,16,56,13.30
2013,09,30,16,57,13.30
2013,09,30,16,58,13.20
2013,09,30,16,59,13.20
2013,09,30,17,00,13.20
2013,09,30,17,01,13.20
2013,09,30,17,02,13.10
2013,09,30,17,03,13.10
2013,09,30,17,04,13.00
2013,09,30,17,05,13.00
2013,09,30,17,06,13.00
2013,09,30,17,07,12.90
2013,09,30,17,08,12.90
2013,09,30,17,09,12.80
2013,09,30,17,10,12.80
2013,09,30,17,11,12.80
2013,09,30,17,12,12.70
2013,09,30,17,13,12.70
2013,09,30,17,14,12.70
2013,09,30,17,15,12.60
2013,09,30,17,16,12.60
2013,09,30,17,17,12.50
2013,09,30,17,18,12.50
2013,09,30,17,19,12.50
2013,09,30,17,20,12.50
2013,09,30,17,21,12.50
2013,09,30,17,22,12.40
2013,09,30,17,23,12.40
2013,09,30,17,24,12.40
2013,09,30,17,25,12.40
2013,09,30,17,26,12.40
2013,09,30,17,27,12.30
2013,09,30,17,28,12.30
2013,09,30,17,29,12.30
2013,09,30,17,30,12.30
2013,09,30,17,31,12.30
2013,09,30,17,32,12.30
2013,09,30,17,33,12.30
2013,09,30,17,34,12.30
2013,09,30,17,35,12.30
2013,09,30,17,36,12.30
2013,09,30,17,37,12.40
2013,09,30,17,38,12.40
2013,09,30,17,39,12.40
2013,09,30,17,40,12.40
2013,09,30,17,41,12.40
2013,09,30,17,42,12.40
2013,09,30,17,43,12.40
2013,09,30,17,44,12.40